contact:dominique.lefevre@mio.osupytheas.fr, maurice.libes@osupytheas.fr, didier.mallarino@osupytheas.fr
Project:EMSO http://www.emso-fr.org/EMSO-France
Depth: 2436.0 m
Title:EMSO Ligure Ouest : Data MII capteur OXYGEN
DateTime,Latitude,Longitude,Optode-Type,Optode_Serial,Oxygen,Saturation_Oxygen,Temperature
DateTime,Latitude,Longitude,Optode-Type,Optode_Serial,µmol.l-1,%,degC
2019-05-25T00:02:10,42.805,6.029,4330,1995,195.102,59.668,13.290
2019-05-25T00:05:10,42.805,6.029,4330,1995,195.042,59.650,13.291
2019-05-25T00:08:10,42.805,6.029,4330,1995,194.999,59.637,13.290
2019-05-25T00:11:10,42.805,6.029,4330,1995,194.954,59.623,13.290
2019-05-25T00:14:10,42.805,6.029,4330,1995,195.058,59.654,13.290
2019-05-25T00:17:10,42.805,6.029,4330,1995,195.120,59.675,13.292
2019-05-25T00:20:10,42.805,6.029,4330,1995,195.104,59.670,13.291
2019-05-25T00:23:10,42.805,6.029,4330,1995,195.146,59.680,13.289
2019-05-25T00:26:10,42.805,6.029,4330,1995,195.274,59.722,13.291
2019-05-25T00:29:10,42.805,6.029,4330,1995,195.189,59.696,13.291
2019-05-25T00:32:10,42.805,6.029,4330,1995,195.237,59.711,13.291
2019-05-25T00:35:10,42.805,6.029,4330,1995,195.175,59.692,13.292
2019-05-25T00:38:10,42.805,6.029,4330,1995,195.279,59.724,13.292
2019-05-25T00:41:10,42.805,6.029,4330,1995,195.189,59.697,13.292
2019-05-25T00:44:10,42.805,6.029,4330,1995,195.252,59.714,13.290
2019-05-25T00:47:10,42.805,6.029,4330,1995,195.362,59.747,13.290
2019-05-25T00:50:10,42.805,6.029,4330,1995,195.445,59.774,13.291
2019-05-25T00:53:10,42.805,6.029,4330,1995,195.377,59.752,13.291
2019-05-25T00:56:10,42.805,6.029,4330,1995,195.347,59.743,13.291
2019-05-25T00:59:10,42.805,6.029,4330,1995,195.335,59.740,13.291
2019-05-25T01:02:10,42.805,6.029,4330,1995,195.301,59.730,13.291
2019-05-25T01:05:10,42.805,6.029,4330,1995,195.211,59.706,13.294
2019-05-25T01:08:10,42.805,6.029,4330,1995,195.218,59.705,13.292
2019-05-25T01:11:10,42.805,6.029,4330,1995,195.243,59.713,13.292
2019-05-25T01:14:10,42.805,6.029,4330,1995,195.186,59.696,13.292
2019-05-25T01:17:10,42.805,6.029,4330,1995,195.220,59.707,13.292
2019-05-25T01:20:10,42.805,6.029,4330,1995,195.213,59.705,13.292
2019-05-25T01:23:10,42.805,6.029,4330,1995,195.100,59.670,13.292
2019-05-25T01:26:10,42.805,6.029,4330,1995,195.077,59.664,13.293
2019-05-25T01:29:10,42.805,6.029,4330,1995,195.115,59.674,13.292
2019-05-25T01:32:10,42.805,6.029,4330,1995,195.095,59.668,13.292
2019-05-25T01:35:10,42.805,6.029,4330,1995,194.993,59.638,13.293
2019-05-25T01:38:10,42.805,6.029,4330,1995,194.865,59.599,13.293
2019-05-25T01:41:10,42.805,6.029,4330,1995,194.715,59.556,13.295
2019-05-25T01:44:10,42.805,6.029,4330,1995,194.639,59.530,13.293
2019-05-25T01:47:10,42.805,6.029,4330,1995,194.618,59.526,13.295
2019-05-25T01:50:10,42.805,6.029,4330,1995,194.644,59.531,13.293
2019-05-25T01:53:10,42.805,6.029,4330,1995,194.607,59.521,13.293
2019-05-25T01:56:10,42.805,6.029,4330,1995,194.399,59.459,13.295
2019-05-25T01:59:10,42.805,6.029,4330,1995,194.117,59.372,13.294
2019-05-25T02:02:10,42.805,6.029,4330,1995,194.163,59.387,13.295
2019-05-25T02:05:10,42.805,6.029,4330,1995,194.127,59.378,13.296
2019-05-25T02:08:10,42.805,6.029,4330,1995,194.022,59.347,13.297
2019-05-25T02:11:10,42.805,6.029,4330,1995,193.909,59.318,13.302
2019-05-25T02:14:10,42.805,6.029,4330,1995,193.830,59.292,13.300
2019-05-25T02:17:10,42.805,6.029,4330,1995,193.638,59.238,13.304
2019-05-25T02:20:10,42.805,6.029,4330,1995,193.416,59.175,13.308
2019-05-25T02:23:10,42.805,6.029,4330,1995,193.168,59.106,13.313
2019-05-25T02:26:10,42.805,6.029,4330,1995,193.069,59.077,13.313
2019-05-25T02:29:10,42.805,6.029,4330,1995,193.000,59.050,13.310
2019-05-25T02:32:10,42.805,6.029,4330,1995,192.811,58.995,13.312
2019-05-25T02:35:10,42.805,6.029,4330,1995,192.627,58.935,13.308
2019-05-25T02:38:10,42.805,6.029,4330,1995,192.654,58.941,13.307
2019-05-25T02:41:10,42.805,6.029,4330,1995,192.822,58.989,13.304
2019-05-25T02:44:10,42.805,6.029,4330,1995,192.923,59.019,13.304
2019-05-25T02:47:10,42.805,6.029,4330,1995,193.156,59.093,13.306
2019-05-25T02:50:10,42.805,6.029,4330,1995,193.119,59.082,13.306
2019-05-25T02:53:10,42.805,6.029,4330,1995,193.023,59.049,13.303
2019-05-25T02:56:10,42.805,6.029,4330,1995,192.919,59.019,13.304
2019-05-25T02:59:10,42.805,6.029,4330,1995,192.854,58.996,13.302
2019-05-25T03:02:10,42.805,6.029,4330,1995,193.112,59.071,13.299
2019-05-25T03:05:10,42.805,6.029,4330,1995,193.447,59.175,13.300
2019-05-25T03:08:10,42.805,6.029,4330,1995,193.412,59.174,13.308
2019-05-25T03:11:10,42.805,6.029,4330,1995,193.357,59.155,13.306
2019-05-25T03:14:10,42.805,6.029,4330,1995,193.235,59.115,13.304
2019-05-25T03:17:10,42.805,6.029,4330,1995,193.099,59.074,13.304
2019-05-25T03:20:10,42.805,6.029,4330,1995,192.953,59.029,13.304
2019-05-25T03:23:10,42.805,6.029,4330,1995,192.833,58.990,13.303
2019-05-25T03:26:10,42.805,6.029,4330,1995,192.829,58.992,13.305
2019-05-25T03:29:10,42.805,6.029,4330,1995,192.898,59.010,13.302
2019-05-25T03:32:10,42.805,6.029,4330,1995,192.897,59.010,13.303
2019-05-25T03:35:10,42.805,6.029,4330,1995,192.822,58.984,13.301
2019-05-25T03:38:10,42.805,6.029,4330,1995,192.643,58.933,13.303
2019-05-25T03:41:10,42.805,6.029,4330,1995,192.721,58.957,13.304
2019-05-25T03:44:10,42.805,6.029,4330,1995,192.829,58.985,13.300
2019-05-25T03:47:10,42.805,6.029,4330,1995,193.134,59.079,13.300
2019-05-25T03:50:10,42.805,6.029,4330,1995,193.234,59.109,13.300
2019-05-25T03:53:10,42.805,6.029,4330,1995,193.470,59.181,13.299
2019-05-25T03:56:10,42.805,6.029,4330,1995,193.587,59.217,13.300
2019-05-25T03:59:10,42.805,6.029,4330,1995,193.564,59.212,13.301
2019-05-25T04:02:10,42.805,6.029,4330,1995,193.532,59.199,13.299
2019-05-25T04:05:10,42.805,6.029,4330,1995,193.504,59.194,13.302
2019-05-25T04:08:10,42.805,6.029,4330,1995,193.481,59.184,13.299
2019-05-25T04:11:10,42.805,6.029,4330,1995,193.390,59.154,13.298
2019-05-25T04:14:10,42.805,6.029,4330,1995,193.350,59.140,13.297
2019-05-25T04:17:10,42.805,6.029,4330,1995,193.367,59.149,13.299
2019-05-25T04:20:10,42.805,6.029,4330,1995,193.555,59.203,13.297
2019-05-25T04:23:10,42.805,6.029,4330,1995,193.628,59.228,13.299
2019-05-25T04:26:10,42.805,6.029,4330,1995,193.544,59.203,13.299
2019-05-25T04:29:10,42.805,6.029,4330,1995,193.622,59.224,13.297
2019-05-25T04:32:10,42.805,6.029,4330,1995,193.587,59.214,13.297
2019-05-25T04:35:10,42.805,6.029,4330,1995,193.484,59.180,13.296
2019-05-25T04:38:10,42.805,6.029,4330,1995,193.532,59.199,13.299
2019-05-25T04:41:10,42.805,6.029,4330,1995,193.560,59.203,13.295
2019-05-25T04:44:10,42.805,6.029,4330,1995,193.614,59.221,13.296
2019-05-25T04:47:10,42.805,6.029,4330,1995,193.619,59.223,13.297
2019-05-25T04:50:10,42.805,6.029,4330,1995,193.484,59.187,13.301
2019-05-25T04:53:10,42.805,6.029,4330,1995,193.578,59.209,13.296
2019-05-25T04:56:10,42.805,6.029,4330,1995,193.721,59.252,13.295
2019-05-25T04:59:10,42.805,6.029,4330,1995,193.758,59.264,13.296
2019-05-25T05:02:10,42.805,6.029,4330,1995,193.664,59.244,13.302
2019-05-25T05:05:10,42.805,6.029,4330,1995,193.632,59.226,13.296
2019-05-25T05:08:10,42.805,6.029,4330,1995,193.687,59.249,13.301
2019-05-25T05:11:10,42.805,6.029,4330,1995,193.560,59.207,13.298
2019-05-25T05:14:10,42.805,6.029,4330,1995,193.487,59.185,13.299
2019-05-25T05:17:10,42.805,6.029,4330,1995,193.645,59.230,13.296
2019-05-25T05:20:10,42.805,6.029,4330,1995,193.898,59.307,13.296
2019-05-25T05:23:10,42.805,6.029,4330,1995,193.998,59.336,13.295
2019-05-25T05:26:10,42.805,6.029,4330,1995,193.957,59.329,13.299
2019-05-25T05:29:10,42.805,6.029,4330,1995,193.938,59.322,13.298
2019-05-25T05:32:10,42.805,6.029,4330,1995,194.001,59.339,13.296
2019-05-25T05:35:10,42.805,6.029,4330,1995,194.016,59.346,13.298
2019-05-25T05:38:10,42.805,6.029,4330,1995,194.046,59.354,13.297
2019-05-25T05:41:10,42.805,6.029,4330,1995,193.960,59.331,13.299
2019-05-25T05:44:10,42.805,6.029,4330,1995,193.992,59.333,13.294
2019-05-25T05:47:10,42.805,6.029,4330,1995,194.127,59.380,13.298
2019-05-25T05:50:10,42.805,6.029,4330,1995,194.107,59.369,13.294
2019-05-25T05:53:10,42.805,6.029,4330,1995,194.078,59.364,13.297
2019-05-25T05:56:10,42.805,6.029,4330,1995,194.173,59.390,13.295
2019-05-25T05:59:10,42.805,6.029,4330,1995,194.323,59.435,13.294
2019-05-25T06:02:10,42.805,6.029,4330,1995,194.276,59.422,13.295
2019-05-25T06:05:10,42.805,6.029,4330,1995,194.315,59.431,13.293
2019-05-25T06:08:10,42.805,6.029,4330,1995,194.336,59.437,13.293
2019-05-25T06:11:10,42.805,6.029,4330,1995,194.231,59.407,13.294
2019-05-25T06:14:10,42.805,6.029,4330,1995,194.202,59.398,13.294
2019-05-25T06:17:10,42.805,6.029,4330,1995,194.399,59.456,13.292
2019-05-25T06:20:10,42.805,6.029,4330,1995,194.374,59.446,13.291
2019-05-25T06:23:10,42.805,6.029,4330,1995,194.432,59.467,13.293
2019-05-25T06:26:10,42.805,6.029,4330,1995,194.466,59.475,13.291
2019-05-25T06:29:10,42.805,6.029,4330,1995,194.650,59.531,13.291
2019-05-25T06:32:10,42.805,6.029,4330,1995,194.782,59.571,13.291
2019-05-25T06:35:10,42.805,6.029,4330,1995,194.838,59.587,13.290
2019-05-25T06:38:10,42.805,6.029,4330,1995,194.927,59.618,13.293
2019-05-25T06:41:10,42.805,6.029,4330,1995,194.916,59.613,13.292
2019-05-25T06:44:10,42.805,6.029,4330,1995,195.062,59.655,13.290
2019-05-25T06:47:10,42.805,6.029,4330,1995,195.143,59.681,13.291
2019-05-25T06:50:10,42.805,6.029,4330,1995,195.106,59.669,13.291
2019-05-25T06:53:10,42.805,6.029,4330,1995,195.056,59.654,13.291
2019-05-25T06:56:10,42.805,6.029,4330,1995,195.008,59.643,13.293
2019-05-25T06:59:10,42.805,6.029,4330,1995,195.010,59.641,13.291
2019-05-25T07:02:10,42.805,6.029,4330,1995,195.061,59.657,13.291
2019-05-25T07:05:10,42.805,6.029,4330,1995,195.118,59.673,13.290
2019-05-25T07:08:10,42.805,6.029,4330,1995,195.177,59.690,13.290
2019-05-25T07:11:10,42.805,6.029,4330,1995,195.233,59.708,13.290
2019-05-25T07:14:10,42.805,6.029,4330,1995,195.209,59.701,13.290
2019-05-25T07:17:10,42.805,6.029,4330,1995,195.182,59.693,13.290
2019-05-25T07:20:10,42.805,6.029,4330,1995,195.147,59.683,13.291
2019-05-25T07:23:10,42.805,6.029,4330,1995,195.257,59.715,13.290
2019-05-25T07:26:10,42.805,6.029,4330,1995,195.115,59.672,13.291
2019-05-25T07:29:10,42.805,6.029,4330,1995,195.095,59.666,13.290
2019-05-25T07:32:10,42.805,6.029,4330,1995,195.212,59.700,13.289
2019-05-25T07:35:10,42.805,6.029,4330,1995,195.240,59.711,13.291
2019-05-25T07:38:10,42.805,6.029,4330,1995,195.257,59.715,13.290
2019-05-25T07:41:10,42.805,6.029,4330,1995,195.279,59.724,13.292
2019-05-25T07:44:10,42.805,6.029,4330,1995,195.321,59.735,13.290
2019-05-25T07:47:10,42.805,6.029,4330,1995,195.192,59.697,13.291
2019-05-25T07:50:10,42.805,6.029,4330,1995,195.387,59.758,13.292
2019-05-25T07:53:10,42.805,6.029,4330,1995,195.283,59.726,13.292
2019-05-25T07:56:10,42.805,6.029,4330,1995,195.200,59.699,13.291
2019-05-25T07:59:10,42.805,6.029,4330,1995,195.324,59.736,13.291
2019-05-25T08:02:10,42.805,6.029,4330,1995,195.287,59.725,13.290
2019-05-25T08:05:10,42.805,6.029,4330,1995,195.272,59.719,13.290
2019-05-25T08:08:10,42.805,6.029,4330,1995,195.244,59.713,13.292
2019-05-25T08:11:10,42.805,6.029,4330,1995,195.194,59.697,13.291
2019-05-25T08:14:10,42.805,6.029,4330,1995,195.277,59.723,13.291
2019-05-25T08:17:10,42.805,6.029,4330,1995,195.262,59.716,13.290
2019-05-25T08:20:10,42.805,6.029,4330,1995,195.231,59.708,13.291
2019-05-25T08:23:10,42.805,6.029,4330,1995,195.265,59.718,13.290
2019-05-25T08:26:10,42.805,6.029,4330,1995,195.070,59.659,13.291
2019-05-25T08:29:10,42.805,6.029,4330,1995,195.070,59.659,13.291
2019-05-25T08:32:10,42.805,6.029,4330,1995,194.969,59.629,13.292
2019-05-25T08:35:10,42.805,6.029,4330,1995,195.073,59.660,13.291
2019-05-25T08:38:10,42.805,6.029,4330,1995,194.952,59.624,13.292
2019-05-25T08:41:10,42.805,6.029,4330,1995,195.060,59.655,13.290
2019-05-25T08:44:10,42.805,6.029,4330,1995,195.127,59.677,13.291
2019-05-25T08:47:10,42.805,6.029,4330,1995,195.046,59.651,13.290
2019-05-25T08:50:10,42.805,6.029,4330,1995,195.091,59.666,13.291
2019-05-25T08:53:10,42.805,6.029,4330,1995,195.126,59.675,13.290
2019-05-25T08:56:10,42.805,6.029,4330,1995,195.109,59.671,13.291
2019-05-25T08:59:10,42.805,6.029,4330,1995,195.229,59.707,13.291
2019-05-25T09:02:10,42.805,6.029,4330,1995,195.164,59.689,13.292
2019-05-25T09:05:10,42.805,6.029,4330,1995,195.054,59.656,13.292
2019-05-25T09:08:10,42.805,6.029,4330,1995,195.011,59.643,13.293
2019-05-25T09:11:10,42.805,6.029,4330,1995,195.092,59.669,13.293
2019-05-25T09:14:10,42.805,6.029,4330,1995,194.934,59.625,13.297
2019-05-25T09:17:10,42.805,6.029,4330,1995,194.940,59.621,13.292
2019-05-25T09:20:10,42.805,6.029,4330,1995,195.012,59.643,13.292
2019-05-25T09:23:10,42.805,6.029,4330,1995,195.009,59.643,13.293
2019-05-25T09:26:10,42.805,6.029,4330,1995,195.032,59.650,13.293
2019-05-25T09:29:10,42.805,6.029,4330,1995,194.921,59.617,13.293
2019-05-25T09:32:10,42.805,6.029,4330,1995,194.812,59.587,13.296
2019-05-25T09:35:10,42.805,6.029,4330,1995,194.881,59.609,13.297
2019-05-25T09:38:10,42.805,6.029,4330,1995,194.929,59.619,13.293
2019-05-25T09:41:10,42.805,6.029,4330,1995,194.884,59.604,13.292
2019-05-25T09:44:10,42.805,6.029,4330,1995,194.884,59.602,13.291
2019-05-25T09:47:10,42.805,6.029,4330,1995,194.852,59.597,13.295
2019-05-25T09:50:10,42.805,6.029,4330,1995,194.933,59.619,13.292
2019-05-25T09:53:10,42.805,6.029,4330,1995,194.977,59.634,13.294
2019-05-25T09:56:10,42.805,6.029,4330,1995,194.871,59.601,13.293
2019-05-25T09:59:10,42.805,6.029,4330,1995,194.863,59.598,13.293
2019-05-25T10:02:10,42.805,6.029,4330,1995,194.882,59.602,13.292
2019-05-25T10:05:10,42.805,6.029,4330,1995,194.953,59.626,13.293
2019-05-25T10:08:10,42.805,6.029,4330,1995,195.007,59.641,13.292
2019-05-25T10:11:10,42.805,6.029,4330,1995,195.002,59.640,13.293
2019-05-25T10:14:10,42.805,6.029,4330,1995,194.901,59.609,13.292
2019-05-25T10:17:10,42.805,6.029,4330,1995,194.946,59.621,13.291
2019-05-25T10:20:10,42.805,6.029,4330,1995,194.995,59.637,13.292
2019-05-25T10:23:10,42.805,6.029,4330,1995,195.083,59.664,13.291
2019-05-25T10:26:10,42.805,6.029,4330,1995,194.924,59.615,13.292
2019-05-25T10:29:10,42.805,6.029,4330,1995,194.989,59.636,13.292
2019-05-25T10:32:10,42.805,6.029,4330,1995,194.950,59.623,13.291
2019-05-25T10:35:10,42.805,6.029,4330,1995,194.922,59.612,13.290
2019-05-25T10:38:10,42.805,6.029,4330,1995,195.019,59.642,13.290
2019-05-25T10:41:10,42.805,6.029,4330,1995,195.034,59.648,13.291
2019-05-25T10:44:10,42.805,6.029,4330,1995,195.077,59.663,13.292
2019-05-25T10:47:10,42.805,6.029,4330,1995,194.926,59.615,13.291
2019-05-25T10:50:10,42.805,6.029,4330,1995,195.037,59.647,13.289
2019-05-25T10:53:10,42.805,6.029,4330,1995,194.954,59.622,13.290
2019-05-25T10:56:10,42.805,6.029,4330,1995,194.948,59.621,13.291
2019-05-25T10:59:10,42.805,6.029,4330,1995,195.051,59.651,13.290
2019-05-25T11:02:10,42.805,6.029,4330,1995,195.086,59.663,13.291
2019-05-25T11:05:10,42.805,6.029,4330,1995,195.081,59.662,13.291
2019-05-25T11:08:10,42.805,6.029,4330,1995,194.936,59.618,13.291
2019-05-25T11:11:10,42.805,6.029,4330,1995,194.834,59.588,13.292
2019-05-25T11:14:10,42.805,6.029,4330,1995,194.844,59.593,13.293
2019-05-25T11:17:10,42.805,6.029,4330,1995,194.747,59.563,13.293
2019-05-25T11:20:10,42.805,6.029,4330,1995,194.768,59.568,13.292
2019-05-25T11:23:10,42.805,6.029,4330,1995,194.884,59.605,13.293
2019-05-25T11:26:10,42.805,6.029,4330,1995,194.903,59.609,13.292
2019-05-25T11:29:10,42.805,6.029,4330,1995,194.803,59.580,13.293
2019-05-25T11:32:10,42.805,6.029,4330,1995,194.808,59.579,13.291
2019-05-25T11:35:10,42.805,6.029,4330,1995,194.755,59.567,13.294
2019-05-25T11:38:10,42.805,6.029,4330,1995,194.692,59.548,13.294
2019-05-25T11:41:10,42.805,6.029,4330,1995,194.760,59.566,13.292
2019-05-25T11:44:10,42.805,6.029,4330,1995,194.818,59.583,13.292
2019-05-25T11:47:10,42.805,6.029,4330,1995,194.793,59.578,13.294
2019-05-25T11:50:10,42.805,6.029,4330,1995,194.722,59.554,13.292
2019-05-25T11:53:10,42.805,6.029,4330,1995,194.871,59.599,13.291
2019-05-25T11:56:10,42.805,6.029,4330,1995,194.944,59.625,13.294
2019-05-25T11:59:10,42.805,6.029,4330,1995,194.894,59.607,13.292
2019-05-25T12:02:10,42.805,6.029,4330,1995,194.947,59.627,13.295
2019-05-25T12:05:10,42.805,6.029,4330,1995,195.052,59.657,13.294
2019-05-25T12:08:10,42.805,6.029,4330,1995,195.103,59.673,13.294
2019-05-25T12:11:10,42.805,6.029,4330,1995,194.923,59.620,13.295
2019-05-25T12:14:10,42.805,6.029,4330,1995,195.011,59.643,13.292
2019-05-25T12:17:10,42.805,6.029,4330,1995,194.946,59.624,13.294
2019-05-25T12:20:10,42.805,6.029,4330,1995,194.846,59.594,13.293
2019-05-25T12:23:10,42.805,6.029,4330,1995,194.893,59.610,13.294
2019-05-25T12:26:10,42.805,6.029,4330,1995,195.157,59.685,13.291
2019-05-25T12:29:10,42.805,6.029,4330,1995,195.061,59.657,13.291
2019-05-25T12:32:10,42.805,6.029,4330,1995,195.020,59.645,13.292
2019-05-25T12:35:10,42.805,6.029,4330,1995,194.923,59.615,13.291
2019-05-25T12:38:10,42.805,6.029,4330,1995,195.118,59.674,13.291
2019-05-25T12:41:09,42.805,6.029,4330,1995,195.009,59.641,13.291
2019-05-25T12:44:09,42.805,6.029,4330,1995,194.932,59.619,13.293
2019-05-25T12:47:09,42.805,6.029,4330,1995,194.818,59.583,13.292
2019-05-25T12:50:09,42.805,6.029,4330,1995,194.916,59.612,13.291
2019-05-25T12:53:09,42.805,6.029,4330,1995,194.804,59.577,13.290
2019-05-25T12:56:09,42.805,6.029,4330,1995,194.721,59.552,13.290
2019-05-25T12:59:09,42.805,6.029,4330,1995,194.779,59.570,13.291
2019-05-25T13:02:09,42.805,6.029,4330,1995,194.803,59.577,13.291
2019-05-25T13:05:09,42.805,6.029,4330,1995,194.819,59.579,13.289
2019-05-25T13:08:09,42.805,6.029,4330,1995,194.781,59.571,13.291
2019-05-25T13:11:09,42.805,6.029,4330,1995,194.917,59.611,13.290
2019-05-25T13:14:09,42.805,6.029,4330,1995,194.919,59.612,13.290
2019-05-25T13:17:09,42.805,6.029,4330,1995,194.939,59.620,13.291
2019-05-25T13:20:09,42.805,6.029,4330,1995,194.870,59.596,13.289
2019-05-25T13:23:09,42.805,6.029,4330,1995,195.007,59.639,13.290
2019-05-25T13:26:09,42.805,6.029,4330,1995,195.083,59.661,13.289
2019-05-25T13:29:09,42.805,6.029,4330,1995,194.906,59.606,13.289
2019-05-25T13:32:09,42.805,6.029,4330,1995,194.918,59.610,13.289
2019-05-25T13:35:09,42.805,6.029,4330,1995,194.775,59.570,13.291
2019-05-25T13:38:09,42.805,6.029,4330,1995,194.877,59.598,13.290
2019-05-25T13:41:09,42.805,6.029,4330,1995,194.932,59.615,13.289
2019-05-25T13:44:09,42.805,6.029,4330,1995,194.995,59.636,13.291
2019-05-25T13:47:09,42.805,6.029,4330,1995,194.933,59.616,13.290
2019-05-25T13:50:09,42.805,6.029,4330,1995,195.031,59.646,13.290
2019-05-25T13:53:09,42.805,6.029,4330,1995,194.868,59.597,13.291
2019-05-25T13:56:09,42.805,6.029,4330,1995,194.806,59.579,13.291
2019-05-25T13:59:09,42.805,6.029,4330,1995,194.872,59.598,13.290
2019-05-25T14:02:09,42.805,6.029,4330,1995,194.941,59.620,13.291
2019-05-25T14:05:09,42.805,6.029,4330,1995,194.881,59.602,13.291
2019-05-25T14:08:09,42.805,6.029,4330,1995,194.804,59.577,13.291
2019-05-25T14:11:09,42.805,6.029,4330,1995,194.854,59.592,13.290
2019-05-25T14:14:09,42.805,6.029,4330,1995,194.891,59.604,13.290
2019-05-25T14:17:09,42.805,6.029,4330,1995,194.875,59.599,13.291
2019-05-25T14:20:09,42.805,6.029,4330,1995,194.879,59.599,13.290
2019-05-25T14:23:09,42.805,6.029,4330,1995,194.925,59.613,13.290
2019-05-25T14:26:09,42.805,6.029,4330,1995,194.936,59.618,13.290
2019-05-25T14:29:09,42.805,6.029,4330,1995,194.909,59.609,13.290
2019-05-25T14:32:09,42.805,6.029,4330,1995,194.918,59.612,13.291
2019-05-25T14:35:09,42.805,6.029,4330,1995,194.822,59.582,13.290
2019-05-25T14:38:09,42.805,6.029,4330,1995,194.876,59.599,13.290
2019-05-25T14:41:09,42.805,6.029,4330,1995,194.840,59.586,13.289
2019-05-25T14:44:09,42.805,6.029,4330,1995,194.898,59.605,13.290
2019-05-25T14:47:09,42.805,6.029,4330,1995,194.852,59.590,13.289
2019-05-25T14:50:09,42.805,6.029,4330,1995,194.872,59.596,13.289
2019-05-25T14:53:09,42.805,6.029,4330,1995,194.850,59.590,13.289
2019-05-25T14:56:09,42.805,6.029,4330,1995,194.811,59.578,13.289
2019-05-25T14:59:09,42.805,6.029,4330,1995,194.740,59.556,13.289
2019-05-25T15:02:09,42.805,6.029,4330,1995,194.647,59.527,13.289
2019-05-25T15:05:09,42.805,6.029,4330,1995,194.692,59.541,13.289
2019-05-25T15:08:09,42.805,6.029,4330,1995,194.687,59.539,13.289
2019-05-25T15:11:09,42.805,6.029,4330,1995,194.762,59.562,13.289
2019-05-25T15:14:09,42.805,6.029,4330,1995,194.715,59.548,13.289
2019-05-25T15:17:09,42.805,6.029,4330,1995,194.718,59.549,13.289
2019-05-25T15:20:09,42.805,6.029,4330,1995,194.745,59.557,13.289
2019-05-25T15:23:09,42.805,6.029,4330,1995,194.697,59.543,13.289
2019-05-25T15:26:09,42.805,6.029,4330,1995,194.785,59.569,13.289
2019-05-25T15:29:09,42.805,6.029,4330,1995,194.687,59.539,13.289
2019-05-25T15:32:09,42.805,6.029,4330,1995,194.727,59.552,13.290
2019-05-25T15:35:09,42.805,6.029,4330,1995,194.738,59.556,13.290
2019-05-25T15:38:09,42.805,6.029,4330,1995,194.904,59.606,13.290
2019-05-25T15:41:09,42.805,6.029,4330,1995,194.861,59.594,13.290
2019-05-25T15:44:09,42.805,6.029,4330,1995,194.908,59.608,13.290
2019-05-25T15:47:09,42.805,6.029,4330,1995,194.883,59.601,13.290
2019-05-25T15:50:09,42.805,6.029,4330,1995,194.835,59.587,13.291
2019-05-25T15:53:09,42.805,6.029,4330,1995,194.865,59.596,13.290
2019-05-25T15:56:09,42.805,6.029,4330,1995,194.837,59.587,13.290
2019-05-25T15:59:09,42.805,6.029,4330,1995,194.814,59.580,13.291
2019-05-25T16:02:09,42.805,6.029,4330,1995,194.809,59.579,13.291
2019-05-25T16:05:09,42.805,6.029,4330,1995,194.817,59.582,13.291
2019-05-25T16:08:09,42.805,6.029,4330,1995,194.890,59.606,13.292
2019-05-25T16:11:09,42.805,6.029,4330,1995,194.989,59.635,13.292
2019-05-25T16:14:09,42.805,6.029,4330,1995,194.917,59.613,13.291
2019-05-25T16:17:09,42.805,6.029,4330,1995,194.938,59.620,13.292
2019-05-25T16:20:09,42.805,6.029,4330,1995,195.035,59.649,13.292
2019-05-25T16:23:09,42.805,6.029,4330,1995,195.172,59.689,13.290
2019-05-25T16:26:09,42.805,6.029,4330,1995,195.107,59.671,13.292
2019-05-25T16:29:09,42.805,6.029,4330,1995,194.996,59.639,13.293
2019-05-25T16:32:09,42.805,6.029,4330,1995,194.917,59.614,13.293
2019-05-25T16:35:09,42.805,6.029,4330,1995,194.810,59.581,13.292
2019-05-25T16:38:09,42.805,6.029,4330,1995,194.921,59.615,13.292
2019-05-25T16:41:09,42.805,6.029,4330,1995,194.946,59.624,13.293
2019-05-25T16:44:09,42.805,6.029,4330,1995,195.048,59.653,13.291
2019-05-25T16:47:09,42.805,6.029,4330,1995,195.085,59.664,13.291
2019-05-25T16:50:09,42.805,6.029,4330,1995,195.129,59.679,13.292
2019-05-25T16:53:09,42.805,6.029,4330,1995,195.033,59.649,13.292
2019-05-25T16:56:09,42.805,6.029,4330,1995,195.020,59.645,13.292
2019-05-25T16:59:09,42.805,6.029,4330,1995,195.051,59.655,13.292
2019-05-25T17:02:09,42.805,6.029,4330,1995,194.977,59.631,13.291
2019-05-25T17:05:09,42.805,6.029,4330,1995,194.983,59.632,13.291
2019-05-25T17:08:09,42.805,6.029,4330,1995,195.048,59.652,13.290
2019-05-25T17:11:09,42.805,6.029,4330,1995,195.000,59.639,13.292
2019-05-25T17:14:09,42.805,6.029,4330,1995,195.013,59.642,13.292
2019-05-25T17:17:09,42.805,6.029,4330,1995,195.164,59.685,13.289
2019-05-25T17:20:09,42.805,6.029,4330,1995,195.206,59.698,13.289
2019-05-25T17:23:09,42.805,6.029,4330,1995,195.162,59.688,13.292
2019-05-25T17:26:09,42.805,6.029,4330,1995,195.003,59.639,13.291
2019-05-25T17:29:09,42.805,6.029,4330,1995,194.980,59.632,13.291
2019-05-25T17:32:09,42.805,6.029,4330,1995,194.934,59.617,13.291
2019-05-25T17:35:09,42.805,6.029,4330,1995,195.008,59.640,13.291
2019-05-25T17:38:09,42.805,6.029,4330,1995,195.006,59.638,13.290
2019-05-25T17:41:09,42.805,6.029,4330,1995,194.961,59.627,13.292
2019-05-25T17:44:09,42.805,6.029,4330,1995,194.904,59.609,13.291
2019-05-25T17:47:09,42.805,6.029,4330,1995,194.865,59.598,13.292
2019-05-25T17:50:09,42.805,6.029,4330,1995,194.882,59.604,13.293
2019-05-25T17:53:09,42.805,6.029,4330,1995,194.831,59.589,13.294
2019-05-25T17:56:09,42.805,6.029,4330,1995,194.771,59.570,13.293
2019-05-25T17:59:09,42.805,6.029,4330,1995,194.788,59.574,13.291
2019-05-25T18:02:09,42.805,6.029,4330,1995,194.880,59.603,13.292
2019-05-25T18:05:09,42.805,6.029,4330,1995,194.945,59.621,13.291
2019-05-25T18:08:09,42.805,6.029,4330,1995,195.044,59.652,13.291